TimeEDT,TemperatureF,Dew PointF,Humidity,Sea Level PressureIn,VisibilityMPH,Wind Direction,Wind SpeedMPH,Gust SpeedMPH,PrecipitationIn,Events,Conditions,WindDirDegrees,DateUTC
12:51 AM,41.0,37.0,86,29.96,10.0,Calm,Calm,-,N/A,,Partly Cloudy,0,2013-10-19 04:51:00
1:51 AM,43.0,37.9,82,29.95,10.0,Calm,Calm,-,N/A,,Mostly Cloudy,0,2013-10-19 05:51:00
2:51 AM,43.0,37.9,82,29.95,10.0,Calm,Calm,-,N/A,,Partly Cloudy,0,2013-10-19 06:51:00
3:51 AM,43.0,39.0,86,29.95,10.0,Calm,Calm,-,N/A,,Partly Cloudy,0,2013-10-19 07:51:00
4:50 AM,42.1,37.9,85,29.95,10.0,Calm,Calm,-,N/A,,Mostly Cloudy,0,2013-10-19 08:50:00
5:51 AM,39.9,37.0,89,29.96,10.0,South,3.5,-,N/A,,Mostly Cloudy,180,2013-10-19 09:51:00
6:51 AM,42.1,37.9,85,29.95,10.0,Calm,Calm,-,N/A,,Mostly Cloudy,0,2013-10-19 10:51:00
7:51 AM,44.1,39.0,82,29.95,10.0,Calm,Calm,-,N/A,,Mostly Cloudy,0,2013-10-19 11:51:00
8:51 AM,48.0,41.0,77,29.96,10.0,SSE,6.9,-,N/A,,Mostly Cloudy,160,2013-10-19 12:51:00
9:51 AM,51.1,41.0,68,29.96,10.0,South,8.1,-,N/A,,Scattered Clouds,180,2013-10-19 13:51:00
10:51 AM,55.9,42.1,60,29.94,10.0,South,6.9,-,N/A,,Scattered Clouds,170,2013-10-19 14:51:00
11:51 AM,59.0,42.1,53,29.92,10.0,South,8.1,-,N/A,,Mostly Cloudy,190,2013-10-19 15:51:00
12:51 PM,63.0,42.1,46,29.88,10.0,South,10.4,-,N/A,,Mostly Cloudy,170,2013-10-19 16:51:00
1:51 PM,63.0,37.9,40,29.86,10.0,South,12.7,20.7,N/A,,Mostly Cloudy,180,2013-10-19 17:51:00
2:51 PM,63.0,37.0,38,29.83,10.0,South,17.3,23.0,N/A,,Overcast,180,2013-10-19 18:51:00
3:51 PM,62.1,37.0,39,29.81,10.0,South,13.8,25.3,N/A,,Overcast,170,2013-10-19 19:51:00
4:51 PM,62.1,37.0,39,29.79,10.0,SSE,10.4,20.7,N/A,,Overcast,160,2013-10-19 20:51:00
5:51 PM,60.1,37.9,44,29.79,10.0,South,16.1,20.7,0.00,Rain,Light Rain,180,2013-10-19 21:51:00
6:51 PM,55.9,44.1,64,29.78,10.0,South,6.9,-,0.02,Rain,Light Rain,170,2013-10-19 22:51:00
7:51 PM,55.9,43.0,62,29.75,10.0,SSE,8.1,-,0.00,,Overcast,160,2013-10-19 23:51:00
8:51 PM,57.0,42.1,57,29.73,10.0,SSE,11.5,-,N/A,,Overcast,160,2013-10-20 00:51:00
9:51 PM,55.9,43.0,62,29.72,10.0,South,11.5,-,N/A,,Mostly Cloudy,170,2013-10-20 01:51:00
10:51 PM,55.9,44.1,64,29.72,10.0,South,12.7,20.7,0.00,Rain,Light Rain,180,2013-10-20 02:51:00
11:51 PM,55.0,46.0,72,29.71,10.0,South,15.0,20.7,0.00,,Mostly Cloudy,180,2013-10-20 03:51:00